This is the latest recevied weather packets stored in our database for station/object N4TLC. If no packets are shown the sender has not sent any weather packets the latest 1 day(s).
| Time | Temp. | Humidity | Pressure | Rain* | Wind** | Luminosity | Snow |
|---|---|---|---|---|---|---|---|
| 1777985687 | 16.67° C | 66% | 1018.7 hPa | 0 mm | 0.89 m/s, 172° | 49 W/m² | - |
| 1777985384 | 16.67° C | 67% | 1018.4 hPa | 0 mm | 0.45 m/s, 126° | 48 W/m² | - |
| 1777985081 | 16.67° C | 68% | 1018.5 hPa | 0 mm | 1.34 m/s, 163° | 47 W/m² | - |
| 1777984777 | 16.11° C | 69% | 1018.2 hPa | 0 mm | 1.34 m/s, 141° | 46 W/m² | - |
| 1777984473 | 16.11° C | 70% | 1018.2 hPa | 0 mm | 0.89 m/s, 148° | 46 W/m² | - |
| 1777984169 | 15.56° C | 70% | 1018.2 hPa | 0 mm | 0.45 m/s, 189° | 45 W/m² | - |
| 1777983867 | 15.56° C | 70% | 1018.2 hPa | 0 mm | 0 m/s | 45 W/m² | - |
| 1777983563 | 15.56° C | 70% | 1018.2 hPa | 0 mm | 0.89 m/s, 185° | 44 W/m² | - |
| 1777983261 | 15.56° C | 71% | 1018.4 hPa | 0 mm | 0 m/s | 43 W/m² | - |
| 1777982956 | 15° C | 72% | 1018.4 hPa | 0 mm | 1.34 m/s, 181° | 42 W/m² | - |
| 1777982653 | 15° C | 73% | 1018.1 hPa | 0 mm | 0.89 m/s, 138° | 42 W/m² | - |
| 1777982352 | 14.44° C | 74% | 1018.2 hPa | 0 mm | 0.89 m/s, 113° | 43 W/m² | - |
| 1777982049 | 14.44° C | 74% | 1018.4 hPa | 0 mm | 0.89 m/s, 119° | 42 W/m² | - |
| 1777981747 | 14.44° C | 75% | 1018.1 hPa | 0 mm | 1.79 m/s, 137° | 37 W/m² | - |
| 1777981443 | 13.89° C | 75% | 1018.1 hPa | 0 mm | 1.34 m/s, 116° | 35 W/m² | - |
| 1777981139 | 13.89° C | 75% | 1018.1 hPa | 0 mm | 0.89 m/s, 153° | 35 W/m² | - |
| 1777980836 | 13.89° C | 76% | 1018.1 hPa | 0 mm | 0.45 m/s, 118° | 38 W/m² | - |
| 1777980531 | 13.33° C | 76% | 1018.1 hPa | 0 mm | 0.89 m/s, 155° | 39 W/m² | - |
| 1777980229 | 12.78° C | 77% | 1018.2 hPa | 0 mm | 0.89 m/s, 143° | 37 W/m² | - |
| 1777979925 | 12.78° C | 78% | 1018 hPa | 0 mm | 0.45 m/s, 166° | 35 W/m² | - |
| 1777979620 | 12.78° C | 79% | 1018 hPa | 0 mm | 0.89 m/s, 127° | 33 W/m² | - |
| 1777979316 | 12.22° C | 79% | 1018 hPa | 0 mm | 0.45 m/s, 84° | 29 W/m² | - |
| 1777979014 | 12.22° C | 80% | 1018.1 hPa | 0 mm | 0 m/s | 24 W/m² | - |
| 1777978711 | 11.67° C | 81% | 1018.1 hPa | 0 mm | 0.89 m/s, 127° | 20 W/m² | - |
| 1777978407 | 11.67° C | 82% | 1018.1 hPa | 0 mm | 0.89 m/s, 102° | 16 W/m² | - |
* Rain latest hour (hover to see other rain measurements)
** Current wind speed in m/s (hover to see current wind gust speed)